Location: Poprad
(49.0500°N, 20.3000°E)
Time: 08:29:43
(UTC+02:00)

ISS - Pass Details

Date: 27 March 2019
Orbit: 408 x 410 km, 51.6° (Epoch: 25 April)

Event Time Altitude Azimuth Distance (km) Brightness Sun altitude
Rises 18:32:53 0° 247° (WSW) 2,329 1.1 -5.9°
Reaches altitude 10° 18:34:58 10° 246° (WSW) 1,470 0.0 -6.2°
Maximum altitude 18:38:15 84° 162° (SSE) 415 -3.8 -6.8°
Drops below altitude 10° 18:41:34 10° 71° (ENE) 1,474 -1.5 -7.3°
Enters shadow 18:42:12 - 71° (ENE) 1,736 -1.1 -7.4°
